Date,TemperatureHighF,TemperatureAvgF,TemperatureLowF,DewpointHighF,DewpointAvgF,DewpointLowF,HumidityHigh,HumidityAvg,HumidityLow,PressureMaxIn,PressureMinIn,WindSpeedMaxMPH,WindSpeedAvgMPH,GustSpeedMaxMPH,PrecipitationSumIn
2012-1-1,45.0,32.8,24.0,8.0,-4.7,-15.0,42,21,10,0.00,40.00,15,8,35,0.00
2012-1-2,50.0,36.6,15.0,12.0,9.2,6.0,66,35,19,0.00,40.00,14,8,29,0.00
2012-1-3,50.0,42.5,34.0,10.0,7.1,2.0,32,23,16,0.00,40.00,17,10,36,0.00
2012-1-4,52.0,43.1,36.0,11.0,3.4,-5.0,27,19,11,0.00,40.00,13,9,29,0.00
2012-1-5,54.0,42.9,33.0,16.0,12.4,9.0,47,30,18,0.00,40.00,15,7,29,0.00
2012-1-6,45.0,34.4,15.0,17.0,7.8,-12.0,86,38,12,0.00,40.00,9,5,25,0.00
2012-1-7,32.0,24.0,9.0,24.0,16.5,5.0,92,75,51,0.00,40.00,7,4,17,0.00
2012-1-8,32.0,14.2,1.0,19.0,2.7,-4.0,83,63,29,0.00,40.00,10,3,19,0.16
2012-1-9,47.0,26.3,11.0,23.0,14.2,1.0,82,62,38,0.00,40.00,7,3,12,0.02
2012-1-10,52.0,36.1,19.0,17.0,11.4,4.0,82,41,15,0.00,40.00,11,6,29,0.01
2012-1-11,33.0,20.4,12.0,19.0,2.2,-24.0,80,49,17,0.00,40.00,15,8,45,0.01
2012-1-12,34.0,21.5,13.0,-4.0,-10.5,-22.0,34,23,16,0.00,40.00,19,11,45,0.01
2012-1-13,36.0,28.5,21.0,0.0,-5.4,-12.0,30,22,16,0.00,40.00,15,11,45,0.00
2012-1-14,45.0,36.9,29.0,6.0,3.8,-3.0,30,25,19,0.00,40.00,21,13,49,0.00
2012-1-15,47.0,38.7,35.0,4.0,-0.4,-5.0,24,19,11,0.00,40.00,18,11,38,0.00
2012-1-16,35.0,28.7,10.0,20.0,11.4,-9.0,84,50,22,0.00,40.00,11,6,27,0.00
2012-1-17,20.0,12.5,7.0,-9.0,-12.2,-17.0,40,31,22,0.00,40.00,18,10,39,0.00
2012-1-18,35.0,27.6,20.0,16.0,4.5,-13.0,57,37,22,0.00,40.00,21,12,40,0.00
2012-1-19,45.0,37.9,30.0,30.0,24.0,16.0,73,57,47,0.00,40.00,17,14,44,0.00
2012-1-20,39.0,35.8,32.0,27.0,21.4,15.0,81,56,40,0.00,40.00,14,8,34,0.00
2012-1-21,49.0,39.5,35.0,31.0,19.7,13.0,80,47,28,0.00,40.00,20,14,46,0.04
2012-1-22,36.0,28.6,24.0,21.0,9.0,-3.0,55,44,29,0.00,40.00,17,11,39,0.02
2012-1-23,39.0,29.8,24.0,14.0,6.5,2.0,62,38,22,0.00,40.00,15,8,46,0.00
2012-1-24,36.0,25.9,12.0,22.0,16.7,5.0,87,70,42,0.00,40.00,14,4,29,0.00
2012-1-25,48.0,36.5,26.0,15.0,7.8,-5.0,43,30,19,0.00,40.00,20,13,45,0.00
2012-1-26,44.0,35.6,31.0,27.0,13.3,6.0,84,41,26,0.00,40.00,16,9,35,0.00
2012-1-27,33.0,25.8,19.0,19.0,4.6,-8.0,59,40,27,0.00,40.00,13,8,31,0.00
2012-1-28,34.0,25.6,17.0,-2.0,-11.4,-19.0,29,19,14,0.00,40.00,18,14,45,0.00
2012-1-29,43.0,34.6,27.0,13.0,6.0,-6.0,36,30,22,0.00,40.00,16,11,36,0.00
2012-1-30,46.0,38.1,31.0,12.0,9.8,8.0,40,31,22,0.00,40.00,15,9,40,0.00
2012-1-31,42.0,32.3,24.0,10.0,6.4,1.0,51,34,18,0.00,40.00,16,8,35,0.00
2012-2-1,42.0,30.5,19.0,8.0,1.5,-11.0,59,31,13,0.00,40.00,15,7,32,0.00
2012-2-2,42.0,27.2,19.0,20.0,8.3,2.0,90,47,22,0.00,40.00,7,3,17,0.00
2012-2-3,28.0,21.7,19.0,20.0,17.1,16.0,90,82,69,0.00,40.00,3,2,13,0.05
2012-2-4,31.0,16.5,3.0,16.0,8.5,-2.0,87,72,45,0.00,40.00,8,2,13,0.20
2012-2-5,38.0,17.3,6.0,14.0,7.2,1.0,82,67,32,0.00,40.00,4,2,9,0.15
2012-2-6,34.0,18.1,6.0,17.0,7.7,0.0,85,66,36,0.00,40.00,7,3,13,0.01
2012-2-7,24.0,13.7,0.0,13.0,7.0,-5.0,88,75,56,0.00,40.00,7,3,12,0.06
2012-2-8,42.0,31.5,6.0,21.0,7.4,-5.0,84,38,21,0.00,40.00,11,7,29,0.01
2012-2-9,37.0,30.0,26.0,18.0,11.4,7.0,55,46,32,0.00,40.00,17,8,28,0.00
2012-2-10,34.0,25.3,15.0,17.0,11.7,6.0,85,57,39,0.00,40.00,15,8,25,0.00
2012-2-11,36.0,18.0,7.0,19.0,10.3,2.0,86,73,50,0.00,40.00,5,2,10,0.09
2012-2-12,45.0,27.3,13.0,25.0,16.8,9.0,87,68,30,0.00,40.00,7,3,20,0.01
2012-2-13,41.0,29.5,24.0,22.0,15.8,11.0,80,58,31,0.00,40.00,10,5,19,0.00
2012-2-14,38.0,26.2,15.0,24.0,14.0,9.0,85,61,36,0.00,40.00,11,5,31,0.00
2012-2-15,33.0,23.7,12.0,18.0,10.8,3.0,78,58,44,0.00,40.00,8,4,19,0.01
2012-2-16,37.0,23.4,8.0,12.0,6.4,2.0,84,52,31,0.00,40.00,14,6,28,0.01
2012-2-17,37.0,26.3,11.0,15.0,5.0,-4.0,79,42,22,0.00,40.00,13,8,25,0.00
2012-2-18,39.0,25.8,6.0,8.0,2.9,-7.0,82,41,18,0.00,40.00,12,7,25,0.00
2012-2-19,43.0,31.0,20.0,24.0,7.6,-1.0,90,42,18,0.00,40.00,7,4,17,0.00
2012-2-20,28.0,21.7,18.0,20.0,-0.5,-10.0,83,38,18,0.00,40.00,15,11,41,0.00
2012-2-21,35.0,26.8,19.0,22.0,10.4,0.0,85,51,38,0.00,40.00,22,16,54,0.00
2012-2-22,42.0,34.8,27.0,29.0,23.8,21.0,85,65,50,0.00,40.00,20,15,46,0.06
2012-2-23,37.0,22.3,15.0,26.0,7.1,-8.0,90,53,32,0.00,40.00,13,7,38,0.06
2012-2-24,34.0,24.4,15.0,6.0,0.7,-6.0,48,36,27,0.00,40.00,14,10,32,0.01
2012-2-25,47.0,35.9,22.0,8.0,5.2,0.0,42,28,19,0.00,40.00,17,10,38,0.01
2012-2-26,27.0,20.0,15.0,0.0,-8.4,-19.0,49,29,17,0.00,40.00,14,7,32,0.00
2012-2-27,47.0,22.8,3.0,13.0,-0.1,-19.0,68,40,17,0.00,40.00,13,4,29,0.00
2012-2-28,34.0,25.3,18.0,26.0,11.8,2.0,91,58,37,0.00,40.00,18,9,47,0.01
2012-2-29,36.0,27.3,20.0,13.0,6.1,-4.0,51,40,28,0.00,40.00,20,12,43,0.01
2012-3-1,30.0,23.1,14.0,22.0,11.8,4.0,91,64,35,0.00,40.00,9,4,21,0.05
2012-3-2,27.0,14.9,0.0,6.0,-3.1,-10.0,68,46,28,0.00,40.00,13,6,28,0.05
2012-3-3,34.0,23.9,13.0,12.0,1.7,-9.0,44,38,30,0.00,40.00,20,15,40,0.00
2012-3-4,43.0,35.5,28.0,16.0,13.9,10.0,58,42,32,0.00,40.00,16,11,48,0.00
2012-3-5,50.0,42.3,36.0,14.0,8.6,4.0,34,25,20,0.00,40.00,16,10,38,0.00
2012-3-6,54.0,44.8,34.0,11.0,2.9,-7.0,37,19,9,0.00,40.00,21,11,47,0.00
2012-3-7,36.0,27.1,22.0,24.0,20.0,9.0,93,77,34,0.00,40.00,8,4,17,0.00
2012-3-8,43.0,28.9,15.0,20.0,13.7,9.0,90,57,27,0.00,40.00,8,3,13,0.00
2012-3-9,54.0,33.6,17.0,11.0,5.8,-4.0,72,38,10,0.00,40.00,7,3,15,0.00
2012-3-10,59.0,40.2,24.0,20.0,7.9,-99.9,67,35,8,0.00,40.00,8,4,15,0.00
2012-3-11,51.0,38.9,27.0,21.0,12.1,-4.0,70,39,13,0.00,40.00,14,5,40,0.00
2012-3-12,54.0,43.6,33.0,14.0,10.8,7.0,46,27,17,0.00,40.00,16,9,41,0.00
2012-3-13,56.0,47.1,37.0,13.0,5.2,-2.0,36,18,9,0.00,40.00,17,9,38,0.00
2012-3-14,58.0,47.3,35.0,10.0,-0.6,-9.0,34,15,6,0.00,40.00,12,6,29,0.00
2012-3-15,59.0,46.7,34.0,20.0,11.2,3.0,53,25,17,0.00,40.00,11,7,23,0.00
2012-3-16,60.0,47.6,31.0,19.0,14.1,8.0,61,29,14,0.00,40.00,14,7,34,0.00
2012-3-17,64.0,51.8,37.0,16.0,10.0,4.0,37,20,10,0.00,40.00,9,5,23,0.00
2012-3-18,62.0,40.8,28.0,25.0,15.7,9.0,86,42,12,0.00,40.00,15,6,35,0.00
2012-3-19,36.0,27.9,23.0,16.0,4.8,1.0,59,37,24,0.00,40.00,13,8,35,0.00
2012-3-20,42.0,31.3,20.0,4.0,0.8,-8.0,44,29,12,0.00,40.00,10,7,22,0.00
2012-3-21,56.0,36.7,21.0,15.0,9.9,-1.0,48,34,19,0.00,40.00,8,5,17,0.00
2012-3-22,61.0,46.3,30.0,17.0,-11.7,-99.9,56,17,14,0.00,40.00,6,4,16,0.00
2012-3-23,68.0,50.4,30.0,19.0,5.9,-99.9,56,21,8,0.00,40.00,11,5,21,0.00
2012-3-24,67.0,51.5,35.0,28.0,16.9,6.0,72,29,11,0.00,40.00,12,6,21,0.00
2012-3-25,68.0,46.2,30.0,28.0,21.0,9.0,82,46,10,0.00,40.00,10,4,21,0.00
2012-3-26,66.0,46.0,33.0,24.0,13.4,-8.0,65,34,5,0.00,40.00,16,6,41,0.00
2012-3-27,58.0,45.3,36.0,13.0,7.1,-3.0,35,22,9,0.00,40.00,15,8,41,0.00
2012-3-28,63.0,45.5,27.0,19.0,11.7,5.0,55,29,11,0.00,40.00,12,5,28,0.00
2012-3-29,58.0,49.3,39.0,23.0,11.5,3.0,46,23,14,0.00,40.00,11,6,27,0.00
2012-3-30,63.0,51.8,43.0,20.0,17.0,6.0,39,26,16,0.00,40.00,14,8,37,0.00
2012-3-31,69.0,56.8,48.0,24.0,18.3,3.0,36,24,9,0.00,40.00,11,7,25,0.00
2012-4-1,71.0,59.7,47.0,16.0,10.1,6.0,28,15,8,0.00,40.00,12,7,30,0.00
2012-4-2,53.0,35.7,29.0,27.0,22.3,11.0,93,62,18,0.00,40.00,7,3,21,0.02
2012-4-3,37.0,30.0,26.0,28.0,24.7,23.0,93,81,63,0.00,40.00,6,2,11,0.37
2012-4-4,56.0,37.3,18.0,37.0,26.5,16.0,94,69,36,0.00,40.00,8,3,14,0.06
2012-4-5,62.0,43.7,28.0,29.0,22.4,8.0,77,49,13,0.00,40.00,6,3,22,0.00
2012-4-6,61.0,43.3,30.0,25.0,8.4,-7.0,77,34,6,0.00,40.00,14,7,32,0.00
2012-4-7,53.0,37.2,24.0,12.0,-0.5,-11.0,56,23,8,0.00,40.00,17,10,39,0.00
2012-4-8,63.0,48.5,24.0,12.0,0.5,-11.0,56,18,5,0.00,40.00,12,5,25,0.00
2012-4-9,66.0,42.8,25.0,22.0,12.7,-3.0,66,34,6,0.00,40.00,12,4,21,0.00
2012-4-10,69.0,45.5,27.0,27.0,20.2,5.0,75,44,9,0.00,40.00,8,3,18,0.00
2012-4-11,63.0,45.5,27.0,44.0,31.5,21.0,93,62,24,0.00,40.00,9,4,28,0.08
2012-4-12,53.0,44.6,36.0,40.0,21.1,11.0,92,44,20,0.00,40.00,12,8,32,0.08
2012-4-13,51.0,40.8,33.0,21.0,14.3,6.0,59,36,16,0.00,40.00,17,8,32,0.00
2012-4-14,47.0,36.4,29.0,31.0,23.9,-99.9,94,65,39,0.00,40.00,8,3,18,0.00
2012-4-15,42.0,33.0,29.0,30.0,24.4,18.0,95,72,46,0.00,40.00,11,4,26,0.12
2012-4-16,47.0,36.8,24.0,26.0,18.8,14.0,93,53,29,0.00,40.00,13,7,26,0.01
2012-4-17,57.0,44.6,31.0,22.0,18.8,17.0,59,37,24,0.00,40.00,12,7,29,0.01
2012-4-18,59.0,48.3,35.0,31.0,22.6,19.0,57,38,21,0.00,40.00,14,8,39,0.00
2012-4-19,53.0,43.5,36.0,36.0,25.0,18.0,86,51,25,0.00,40.00,10,6,24,0.04
2012-4-20,55.0,44.7,25.0,28.0,24.6,19.0,92,48,32,0.00,40.00,13,8,28,0.01
2012-4-21,67.0,55.4,46.0,32.0,21.0,-99.9,54,29,14,0.00,40.00,14,8,29,0.00
2012-4-22,67.0,49.6,29.0,32.0,28.2,16.0,88,51,15,0.00,40.00,9,3,16,0.00
2012-4-23,72.0,50.4,32.0,30.0,24.8,14.0,68,42,12,0.00,40.00,8,3,25,0.00
2012-4-24,71.0,57.2,40.0,25.0,22.0,16.0,52,29,13,0.00,40.00,13,4,33,0.00
2012-4-25,67.0,55.1,38.0,31.0,23.5,12.0,57,32,17,0.00,40.00,7,4,24,0.00
2012-4-26,68.0,54.5,42.0,41.0,34.9,28.0,88,51,25,0.00,40.00,9,4,25,0.03
2012-4-27,50.0,45.7,33.0,41.0,23.6,12.0,88,44,25,0.00,40.00,14,9,37,0.03
2012-4-28,53.0,37.4,24.0,24.0,8.2,-99.9,87,35,14,0.00,40.00,18,9,37,0.00
2012-4-29,58.0,39.2,22.0,26.0,18.2,8.0,77,48,14,0.00,40.00,11,4,25,0.00
2012-4-30,65.0,48.4,27.0,21.0,12.4,8.0,67,28,13,0.00,40.00,15,7,31,0.00
2012-5-1,61.0,53.8,42.0,32.0,20.9,9.0,53,29,18,0.00,40.00,14,7,34,0.00
2012-5-2,64.0,49.4,33.0,40.0,31.7,25.0,85,54,27,0.00,40.00,12,5,28,0.07
2012-5-3,70.0,54.2,33.0,36.0,28.5,15.0,88,44,13,0.00,40.00,11,5,22,0.02
2012-5-4,74.0,60.7,44.0,23.0,16.4,5.0,39,20,7,0.00,40.00,11,6,24,0.00
2012-5-5,73.0,56.8,44.0,27.0,13.7,-99.9,44,20,8,0.00,40.00,11,6,28,0.00
2012-5-6,53.0,39.9,26.0,34.0,24.4,15.0,93,58,25,0.00,40.00,8,4,20,0.05
2012-5-7,44.0,35.7,33.0,34.0,32.3,31.0,94,88,63,0.00,40.00,8,5,14,0.23
2012-5-8,57.0,41.5,24.0,33.0,26.6,19.0,95,61,28,0.00,40.00,7,3,14,0.01
2012-5-9,70.0,50.5,30.0,29.0,20.9,14.0,85,40,12,0.00,40.00,10,4,22,0.00
2012-5-10,71.0,57.8,37.0,25.0,17.3,14.0,47,23,12,0.00,40.00,10,6,23,0.00
2012-5-11,55.0,36.7,30.0,33.0,30.0,25.0,95,79,31,0.00,40.00,7,4,16,0.07
2012-5-12,54.0,39.2,24.0,41.0,31.9,-99.9,96,80,38,0.00,40.00,7,2,19,0.22
2012-5-13,53.0,41.0,32.0,38.0,33.2,29.0,96,76,41,0.00,40.00,9,3,16,0.02
2012-5-14,69.0,49.5,26.0,29.0,16.9,4.0,84,37,9,0.00,40.00,7,3,18,0.01
2012-5-15,72.0,54.3,35.0,26.0,20.8,16.0,54,31,13,0.00,40.00,8,4,21,0.00
2012-5-16,74.0,56.6,41.0,34.0,26.5,19.0,50,34,15,0.00,40.00,13,6,25,0.00
2012-5-17,70.0,57.4,44.0,40.0,30.1,25.0,66,37,20,0.00,40.00,12,8,22,0.01
2012-5-18,70.0,55.2,38.0,33.0,25.9,18.0,65,38,14,0.00,40.00,11,5,31,0.01
2012-5-19,51.0,41.9,33.0,40.0,34.9,-99.9,96,80,44,0.00,40.00,8,3,24,0.47
2012-5-20,64.0,46.8,30.0,40.0,32.7,29.0,96,65,28,0.00,40.00,9,3,21,0.03
2012-5-21,75.0,56.2,35.0,34.0,26.7,20.0,79,40,13,0.00,40.00,9,4,25,0.00
2012-5-22,79.0,60.5,40.0,37.0,22.0,13.0,65,30,9,0.00,40.00,11,5,31,0.00
2012-5-23,55.0,48.6,39.0,41.0,32.2,21.0,93,56,27,0.00,40.00,6,4,18,0.28
2012-5-24,54.0,42.4,35.0,37.0,27.0,18.0,93,58,24,0.00,40.00,13,6,26,0.22
2012-5-25,49.0,41.9,37.0,40.0,35.9,25.0,90,80,48,0.00,40.00,5,2,12,0.01
2012-5-26,76.0,58.1,37.0,41.0,32.4,11.0,94,49,9,0.00,40.00,13,5,33,0.01
2012-5-27,58.0,48.5,42.0,24.0,7.7,-3.0,31,20,11,0.00,40.00,14,10,39,0.00
2012-5-28,64.0,50.9,41.0,21.0,15.6,12.0,42,26,13,0.00,40.00,16,10,39,0.00
2012-5-29,68.0,51.7,29.0,30.0,21.1,17.0,64,33,15,0.00,40.00,9,4,19,0.00
2012-5-30,69.0,54.9,37.0,35.0,25.0,19.0,62,36,16,0.00,40.00,11,6,26,0.00
2012-5-31,62.0,50.3,35.0,40.0,34.6,31.0,85,58,37,0.00,40.00,8,4,17,0.00
2012-6-1,73.0,59.2,39.0,39.0,34.4,30.0,84,43,22,0.00,40.00,10,6,24,0.00
2012-6-2,76.0,55.5,38.0,46.0,37.1,-99.9,86,57,20,0.00,40.00,11,4,26,0.01
2012-6-3,80.0,65.2,51.0,41.0,34.9,25.0,61,35,13,0.00,40.00,10,6,23,0.01
2012-6-4,82.0,64.9,42.0,41.0,32.4,25.0,69,35,13,0.00,40.00,7,4,21,0.00
2012-6-5,73.0,59.1,43.0,49.0,40.6,35.0,80,53,29,0.00,40.00,7,4,19,0.05
2012-6-6,75.0,60.6,43.0,45.0,37.2,27.0,79,47,19,0.00,40.00,12,5,21,0.03
2012-6-7,76.0,62.2,49.0,50.0,46.8,43.0,89,60,35,0.00,40.00,9,4,17,0.00
2012-6-8,82.0,65.4,44.0,52.0,29.9,13.0,92,40,8,0.00,40.00,12,6,25,0.00
2012-6-9,81.0,71.5,62.0,21.0,13.4,-99.9,20,11,6,0.00,40.00,13,8,33,0.00
2012-6-10,67.0,58.5,45.0,21.0,11.0,2.0,34,16,8,0.00,40.00,12,9,35,0.00
2012-6-11,68.0,55.3,36.0,22.0,15.9,3.0,38,22,12,0.00,40.00,11,6,21,0.00
2012-6-12,73.0,58.0,35.0,28.0,17.6,9.0,56,25,9,0.00,40.00,10,5,27,0.00
2012-6-13,81.0,63.1,39.0,25.0,15.4,8.0,42,20,6,0.00,40.00,11,5,25,0.00
2012-6-14,77.0,61.8,46.0,36.0,27.2,14.0,51,28,15,0.00,40.00,10,4,19,0.00
2012-6-15,78.0,61.5,46.0,46.0,36.8,30.0,68,43,21,0.00,40.00,11,4,27,0.00
2012-6-16,71.0,55.5,41.0,47.0,37.3,-99.9,78,54,35,0.00,40.00,7,4,20,0.03
2012-6-17,84.0,67.3,42.0,38.0,22.6,8.0,67,26,6,0.00,40.00,13,8,36,0.02
2012-6-18,84.0,73.9,57.0,22.0,15.9,12.0,26,12,7,0.00,40.00,12,7,29,0.00
2012-6-19,86.0,74.7,66.0,29.0,16.2,11.0,18,11,7,0.00,40.00,15,9,32,0.00
2012-6-20,67.0,59.6,51.0,43.0,36.5,16.0,59,43,19,0.00,40.00,9,6,18,0.00
2012-6-21,77.0,61.1,40.0,42.0,35.2,30.0,69,41,22,0.00,40.00,9,4,19,0.00
2012-6-22,88.0,70.3,45.0,40.0,19.5,2.0,61,23,4,0.00,40.00,12,6,29,0.00
2012-6-23,89.0,74.6,55.0,21.0,16.1,9.0,22,12,5,0.00,40.00,14,6,29,0.00
2012-6-24,90.0,73.5,58.0,34.0,24.6,19.0,35,17,9,0.00,40.00,9,4,20,0.00
2012-6-25,91.0,72.8,53.0,40.0,31.0,21.0,50,25,8,0.00,40.00,12,5,29,0.00
2012-6-26,87.0,75.2,58.0,35.0,31.3,27.0,32,21,14,0.00,40.00,13,7,32,0.00
2012-6-27,84.0,70.0,54.0,57.0,41.1,33.0,87,40,18,0.00,40.00,11,6,27,0.07
2012-6-28,85.0,63.4,49.0,54.0,44.3,35.0,88,55,17,0.00,40.00,8,3,17,0.12
2012-6-29,84.0,69.7,54.0,45.0,36.5,30.0,60,33,15,0.00,40.00,13,6,32,0.03
2012-6-30,85.0,70.6,50.0,36.0,31.0,22.0,52,26,10,0.00,40.00,11,4,37,0.00
2012-7-1,88.0,71.9,53.0,40.0,29.6,12.0,47,26,6,0.00,40.00,8,4,18,0.00
2012-7-2,85.0,67.9,53.0,55.0,38.2,27.0,88,39,12,0.00,40.00,10,4,22,0.02
2012-7-3,83.0,66.2,50.0,53.0,44.3,37.0,85,50,20,0.00,40.00,7,3,17,0.02
2012-7-4,85.0,71.7,56.0,42.0,36.7,30.0,58,31,14,0.00,40.00,8,4,17,0.01
2012-7-5,82.0,64.6,58.0,57.0,48.7,40.0,87,59,31,0.00,40.00,11,4,23,0.05
2012-7-6,74.0,61.9,54.0,54.0,48.4,42.0,97,65,36,0.00,40.00,11,4,25,0.93
2012-7-7,67.0,56.8,52.0,56.0,53.2,51.0,98,89,68,0.00,40.00,5,2,11,1.35
2012-7-8,66.0,57.9,52.0,56.0,52.8,50.0,98,84,65,0.00,40.00,8,2,14,0.86
2012-7-9,70.0,59.8,48.0,54.0,51.6,47.0,97,76,55,0.00,40.00,8,3,15,0.22
2012-7-10,72.0,61.5,47.0,55.0,50.8,45.0,95,70,50,0.00,40.00,6,3,15,0.02
2012-7-11,79.0,63.4,47.0,53.0,45.9,39.0,91,59,24,0.00,40.00,9,3,21,0.18
2012-7-12,79.0,66.1,50.0,51.0,43.8,30.0,84,50,17,0.00,40.00,8,3,16,0.16
2012-7-13,82.0,67.7,49.0,47.0,40.8,33.0,75,43,18,0.00,40.00,7,3,17,0.00
2012-7-14,81.0,65.4,48.0,47.0,41.7,35.0,73,45,20,0.00,40.00,12,4,22,0.00
2012-7-15,79.0,68.2,56.0,51.0,43.5,40.0,62,42,27,0.00,40.00,13,7,25,0.01
2012-7-16,79.0,65.4,52.0,50.0,43.6,39.0,77,48,26,0.00,40.00,13,6,28,0.03
2012-7-17,75.0,66.1,53.0,49.0,43.7,39.0,84,46,29,0.00,40.00,10,6,27,0.03
2012-7-18,85.0,66.1,47.0,47.0,40.8,27.0,82,46,13,0.00,40.00,7,3,17,0.00
2012-7-19,86.0,65.2,49.0,53.0,43.0,33.0,71,47,16,0.00,40.00,6,2,23,0.00
2012-7-20,86.0,69.4,50.0,48.0,41.6,38.0,69,40,20,0.00,40.00,10,4,22,0.00
2012-7-21,85.0,68.6,51.0,61.0,43.4,39.0,75,43,22,0.00,40.00,10,4,19,0.01
2012-7-22,82.0,64.6,52.0,54.0,47.2,41.0,87,55,30,0.00,40.00,9,3,25,0.12
2012-7-23,82.0,67.5,52.0,53.0,46.5,37.0,92,53,25,0.00,40.00,9,4,29,0.15
2012-7-24,81.0,66.7,51.0,51.0,44.5,40.0,84,48,25,0.00,40.00,10,4,27,0.12
2012-7-25,78.0,63.7,53.0,52.0,47.2,41.0,90,58,30,0.00,40.00,12,7,22,0.27
2012-7-26,79.0,61.9,47.0,50.0,45.2,27.0,94,60,16,0.00,40.00,9,3,17,0.01
2012-7-27,80.0,63.9,50.0,53.0,46.2,39.0,78,56,25,0.00,40.00,8,3,20,0.06
2012-7-28,80.0,65.7,55.0,53.0,46.3,43.0,76,52,27,0.00,40.00,10,5,20,0.07
2012-7-29,77.0,63.0,53.0,56.0,48.8,45.0,88,63,34,0.00,40.00,9,4,18,0.13
2012-7-30,77.0,60.6,50.0,56.0,49.0,45.0,89,68,43,0.00,40.00,7,3,17,0.02
2012-7-31,82.0,66.8,50.0,47.0,43.7,36.0,84,48,21,0.00,40.00,13,5,25,0.02
2012-8-1,78.0,67.5,57.0,48.0,43.1,40.0,66,43,29,0.00,40.00,11,7,23,0.00
2012-8-2,79.0,71.2,56.0,45.0,40.6,37.0,63,35,24,0.00,40.00,8,5,17,0.00
2012-8-3,79.0,68.2,51.0,40.0,32.8,28.0,58,29,16,0.00,40.00,12,7,34,0.00
2012-8-4,71.0,59.6,48.0,45.0,42.8,33.0,79,56,35,0.00,40.00,10,5,18,0.00
2012-8-5,83.0,64.1,42.0,41.0,38.2,35.0,81,45,18,0.00,40.00,7,3,18,0.00
2012-8-6,83.0,69.0,54.0,52.0,38.3,30.0,87,35,19,0.00,40.00,10,6,20,0.09
2012-8-7,81.0,66.9,53.0,50.0,41.1,32.0,87,43,21,0.00,40.00,8,5,18,0.09
2012-8-8,83.0,65.8,48.0,39.0,31.3,28.0,52,31,14,0.00,40.00,7,4,15,0.00
2012-8-9,83.0,65.3,47.0,43.0,35.5,27.0,55,36,13,0.00,40.00,8,3,14,0.00
2012-8-10,83.0,66.6,53.0,54.0,44.2,38.0,85,49,22,0.00,40.00,6,2,20,0.03
2012-8-11,80.0,66.5,54.0,49.0,38.7,-99.9,74,39,16,0.00,40.00,12,6,29,0.03
2012-8-12,77.0,60.4,41.0,41.0,37.2,34.0,77,46,24,0.00,40.00,6,3,16,0.00
2012-8-13,73.0,59.2,46.0,42.0,37.9,35.0,66,48,25,0.00,40.00,12,5,22,0.00
2012-8-14,83.0,64.6,46.0,39.0,33.8,27.0,65,36,13,0.00,40.00,10,5,18,0.00
2012-8-15,81.0,63.4,51.0,46.0,36.0,27.0,76,39,14,0.00,40.00,10,6,19,0.00
2012-8-16,62.0,54.9,44.0,47.0,44.5,40.0,87,69,55,0.00,40.00,9,4,16,0.00
2012-8-17,81.0,59.0,39.0,47.0,35.8,22.0,92,54,12,0.00,40.00,11,4,21,0.01
2012-8-18,74.0,58.2,45.0,43.0,37.7,35.0,80,51,26,0.00,40.00,8,4,16,0.01
2012-8-19,76.0,57.3,36.0,35.0,30.8,28.0,73,42,20,0.00,40.00,9,4,19,0.00
2012-8-20,72.0,58.1,44.0,43.0,32.1,25.0,61,39,21,0.00,40.00,10,4,25,0.00
2012-8-21,76.0,60.0,42.0,39.0,34.3,31.0,66,42,21,0.00,40.00,7,3,15,0.00
2012-8-22,74.0,62.5,49.0,47.0,37.6,33.0,62,41,25,0.00,40.00,12,5,24,0.00
2012-8-23,72.0,58.9,49.0,53.0,49.2,45.0,94,74,40,0.00,40.00,10,3,17,0.22
2012-8-24,78.0,58.6,45.0,51.0,41.8,29.0,93,61,18,0.00,40.00,8,2,20,0.17
2012-8-25,74.0,63.1,48.0,41.0,35.0,27.0,72,37,25,0.00,40.00,9,6,18,0.01
2012-8-26,82.0,62.7,45.0,39.0,27.5,23.0,74,32,12,0.00,40.00,9,3,18,0.00
2012-8-27,86.0,65.1,48.0,43.0,34.2,25.0,50,34,15,0.00,40.00,10,4,20,0.00
2012-8-28,84.0,67.1,52.0,45.0,40.4,36.0,60,40,19,0.00,40.00,9,5,18,0.00
2012-8-29,83.0,68.5,52.0,45.0,38.9,32.0,58,36,16,0.00,40.00,12,6,34,0.00
2012-8-30,81.0,63.5,55.0,52.0,41.6,37.0,87,47,21,0.00,40.00,11,5,18,0.13
2012-8-31,80.0,64.3,47.0,46.0,38.4,29.0,79,45,18,0.00,40.00,7,3,17,0.03
2012-9-1,80.0,64.9,48.0,43.0,39.2,34.0,71,43,22,0.00,40.00,12,5,29,0.00
2012-9-2,79.0,67.1,54.0,43.0,37.2,23.0,59,36,14,0.00,40.00,12,7,24,0.00
2012-9-3,75.0,59.8,49.0,43.0,35.6,29.0,64,44,18,0.00,40.00,13,5,30,0.00
2012-9-4,79.0,59.0,41.0,36.0,24.0,9.0,73,36,10,0.00,40.00,13,5,28,0.00
2012-9-5,78.0,54.9,39.0,22.0,16.7,9.0,43,25,7,0.00,40.00,9,3,21,0.00
2012-9-6,79.0,59.9,41.0,27.0,19.5,14.0,36,23,10,0.00,40.00,10,5,24,0.00
2012-9-7,59.0,51.3,41.0,48.0,41.7,27.0,95,73,31,0.00,40.00,7,3,18,0.19
2012-9-8,72.0,52.1,34.0,38.0,33.0,23.0,93,57,17,0.00,40.00,9,3,18,0.07
2012-9-9,80.0,55.2,35.0,34.0,27.4,13.0,78,44,8,0.00,40.00,8,3,17,0.00
2012-9-10,79.0,64.4,48.0,31.0,27.6,25.0,44,27,15,0.00,40.00,11,6,21,0.00
2012-9-11,71.0,59.0,49.0,52.0,37.6,29.0,96,50,24,0.00,40.00,11,4,24,0.31
2012-9-12,52.0,49.1,45.0,49.0,46.4,43.0,97,91,82,0.00,40.00,8,4,13,0.35
2012-9-13,66.0,50.0,34.0,43.0,34.1,20.0,95,63,20,0.00,40.00,8,3,14,0.01
2012-9-14,71.0,51.2,34.0,34.0,29.5,23.0,84,50,19,0.00,40.00,7,3,20,0.00
2012-9-15,78.0,57.4,37.0,31.0,19.2,9.0,71,31,7,0.00,40.00,11,4,23,0.00
2012-9-16,75.0,57.3,41.0,21.0,14.3,9.0,40,21,8,0.00,40.00,10,4,23,0.00
2012-9-17,59.0,49.0,37.0,41.0,35.7,21.0,89,63,29,0.00,40.00,9,4,18,0.00
2012-9-18,75.0,53.1,32.0,34.0,23.9,17.0,89,43,12,0.00,40.00,10,5,19,0.00
2012-9-19,72.0,59.4,43.0,28.0,21.7,17.0,51,25,13,0.00,40.00,10,6,24,0.00
2012-9-20,73.0,56.2,37.0,27.0,23.4,17.0,60,32,12,0.00,40.00,8,4,18,0.00
2012-9-21,72.0,54.0,37.0,29.0,24.3,19.0,52,34,17,0.00,40.00,8,3,18,0.00
2012-9-22,73.0,52.4,33.0,31.0,24.8,-99.9,71,40,14,0.00,40.00,8,3,17,0.00
2012-9-23,74.0,57.7,38.0,32.0,21.8,14.0,57,30,11,0.00,40.00,11,5,26,0.00
2012-9-24,68.0,57.3,48.0,41.0,34.4,29.0,71,44,27,0.00,40.00,10,5,23,0.00
2012-9-25,59.0,46.5,36.0,44.0,37.1,29.0,94,72,35,0.00,40.00,9,3,17,0.45
2012-9-26,51.0,46.6,43.0,45.0,42.4,40.0,96,86,68,0.00,40.00,6,2,11,0.67
2012-9-27,58.0,44.5,34.0,45.0,39.5,33.0,96,84,48,0.00,40.00,8,2,17,0.58
2012-9-28,64.0,47.0,33.0,42.0,36.5,31.0,94,72,30,0.00,40.00,7,2,11,0.01
2012-9-29,69.0,50.3,37.0,38.0,32.3,19.0,93,57,15,0.00,40.00,8,3,14,0.00
2012-9-30,66.0,54.3,42.0,33.0,30.0,24.0,69,42,20,0.00,40.00,8,5,20,0.00
2012-10-1,62.0,49.7,37.0,37.0,34.9,33.0,86,59,35,0.00,40.00,9,3,15,0.00
2012-10-2,73.0,56.8,33.0,33.0,23.4,14.0,90,34,11,0.00,40.00,13,7,26,0.00
2012-10-3,70.0,57.9,34.0,29.0,20.9,16.0,78,27,13,0.00,40.00,17,8,36,0.00
2012-10-4,39.0,32.7,30.0,28.0,24.7,22.0,82,72,56,0.00,40.00,8,4,15,0.00
2012-10-5,41.0,31.1,27.0,31.0,25.5,21.0,94,80,62,0.00,40.00,12,4,19,0.02
2012-10-6,40.0,28.1,24.0,24.0,19.3,6.0,89,73,24,0.00,40.00,11,4,27,0.02
2012-10-7,48.0,33.3,12.0,19.0,10.8,-5.0,81,47,13,0.00,40.00,9,4,18,0.00
2012-10-8,63.0,49.3,39.0,5.0,-0.9,-6.0,19,13,7,0.00,40.00,15,8,26,0.00
2012-10-9,61.0,45.6,27.0,30.0,17.3,2.0,87,41,13,0.00,40.00,15,9,32,0.00
2012-10-10,67.0,45.2,23.0,24.0,19.0,12.0,89,46,12,0.00,40.00,13,5,26,0.00
2012-10-11,68.0,49.1,34.0,33.0,26.8,22.0,81,44,18,0.00,40.00,7,4,20,0.00
2012-10-12,63.0,45.4,32.0,40.0,32.0,27.0,84,64,26,0.00,40.00,8,4,27,0.01
2012-10-13,54.0,44.0,38.0,36.0,28.7,25.0,81,56,37,0.00,40.00,12,8,23,0.04
2012-10-14,55.0,47.5,39.0,31.0,27.7,25.0,67,47,32,0.00,40.00,14,7,38,0.02
2012-10-15,63.0,53.5,40.0,27.0,24.6,22.0,59,34,22,0.00,40.00,16,9,32,0.00
2012-10-16,64.0,52.6,41.0,40.0,28.2,24.0,79,41,26,0.00,40.00,21,10,43,0.11
2012-10-17,44.0,39.4,33.0,25.0,7.2,-1.0,49,27,15,0.00,40.00,21,13,45,0.11
2012-10-18,54.0,43.7,35.0,13.0,8.6,3.0,32,24,16,0.00,40.00,18,11,41,0.00
2012-10-19,64.0,52.0,43.0,18.0,14.6,8.0,33,23,12,0.00,40.00,12,7,31,0.00
2012-10-20,67.0,55.4,42.0,18.0,15.7,13.0,34,21,14,0.00,40.00,12,6,30,0.00
2012-10-21,68.0,52.5,33.0,22.0,17.6,12.0,64,27,15,0.00,40.00,12,6,25,0.00
2012-10-22,66.0,48.9,28.0,26.0,21.6,16.0,81,41,17,0.00,40.00,10,6,30,0.00
2012-10-23,62.0,53.6,47.0,25.0,18.0,8.0,41,25,13,0.00,40.00,15,9,43,0.00
2012-10-24,47.0,36.9,28.0,33.0,28.6,25.0,98,73,41,0.00,40.00,7,4,14,0.02
2012-10-25,37.0,25.7,19.0,27.0,20.7,17.0,95,82,43,0.00,40.00,8,4,18,0.33
2012-10-26,34.0,22.9,10.0,20.0,12.4,6.0,92,68,36,0.00,40.00,9,3,23,0.16
2012-10-27,39.0,32.8,26.0,19.0,13.2,6.0,70,44,35,0.00,40.00,14,8,37,0.03
2012-10-28,52.0,43.0,35.0,30.0,23.4,17.0,51,46,38,0.00,40.00,14,7,30,0.00
2012-10-29,57.0,48.7,45.0,30.0,27.3,24.0,50,44,34,0.00,40.00,13,9,30,0.00
2012-10-30,61.0,49.8,40.0,26.0,23.3,21.0,51,36,21,0.00,40.00,14,8,30,0.00
2012-10-31,63.0,49.4,34.0,25.0,21.4,19.0,65,35,19,0.00,40.00,12,6,23,0.00
2012-11-1,60.0,44.6,28.0,24.0,16.8,11.0,77,39,14,0.00,40.00,13,5,33,0.00
2012-11-2,54.0,39.9,27.0,24.0,18.0,13.0,74,43,27,0.00,40.00,8,4,19,0.00
2012-11-3,57.0,37.9,22.0,25.0,15.0,1.0,89,49,11,0.00,40.00,12,4,23,0.00
2012-11-4,56.0,45.9,42.0,25.0,17.2,4.0,45,32,19,0.00,40.00,14,9,26,0.00
2012-11-5,55.0,47.0,36.0,27.0,24.5,21.0,60,42,30,0.00,40.00,12,7,25,0.00
2012-11-6,61.0,49.8,44.0,26.0,21.9,16.0,48,34,21,0.00,40.00,13,8,27,0.00
2012-11-7,63.0,51.7,35.0,18.0,14.7,11.0,41,24,16,0.00,40.00,14,8,27,0.00
2012-11-8,61.0,44.4,25.0,23.0,18.2,14.0,77,38,19,0.00,40.00,10,4,20,0.00
2012-11-9,61.0,45.5,25.0,24.0,18.8,15.0,77,36,19,0.00,40.00,10,5,25,0.00
2012-11-10,45.0,30.5,15.0,31.0,19.0,6.0,92,64,39,0.00,40.00,13,6,31,0.01
2012-11-11,23.0,16.5,8.0,12.0,-2.7,-10.0,88,46,22,0.00,40.00,17,8,39,0.01
2012-11-12,38.0,26.8,14.0,1.0,-3.1,-8.0,42,27,19,0.00,40.00,17,12,45,0.00
2012-11-13,42.0,35.1,33.0,15.0,7.7,-6.0,44,32,17,0.00,40.00,13,8,33,0.00
2012-11-14,50.0,39.1,25.0,18.0,10.0,-99.9,56,31,20,0.00,40.00,15,9,36,0.00
2012-11-15,41.0,31.4,16.0,24.0,19.6,14.0,92,63,41,0.00,40.00,9,4,22,0.00
2012-11-16,56.0,38.2,15.0,23.0,11.9,2.0,91,41,12,0.00,40.00,12,5,24,0.00
2012-11-17,52.0,41.4,27.0,29.0,22.8,19.0,72,49,32,0.00,40.00,12,6,28,0.00
2012-11-18,47.0,40.9,28.0,27.0,22.6,19.0,70,48,37,0.00,40.00,11,6,28,0.00
2012-11-19,49.0,40.8,32.0,23.0,20.3,17.0,55,44,32,0.00,40.00,14,7,26,0.00
2012-11-20,56.0,46.9,39.0,20.0,14.6,11.0,47,28,18,0.00,40.00,13,9,28,0.00
2012-11-21,57.0,49.7,45.0,12.0,7.9,5.0,23,18,13,0.00,40.00,13,9,30,0.00
2012-11-22,49.0,42.7,27.0,18.0,12.1,6.0,42,29,21,0.00,40.00,16,8,36,0.00
2012-11-23,50.0,35.5,12.0,10.0,6.4,3.0,69,34,17,0.00,40.00,15,8,29,0.00
2012-11-24,55.0,46.6,42.0,11.0,8.6,4.0,27,21,16,0.00,40.00,15,9,41,0.00
2012-11-25,52.0,42.6,34.0,13.0,8.2,3.0,34,25,14,0.00,40.00,16,8,36,0.00
2012-11-26,41.0,29.2,17.0,21.0,14.0,-13.0,93,57,9,0.00,40.00,11,4,29,0.00
2012-11-27,53.0,43.9,38.0,6.0,-2.7,-18.0,23,14,7,0.00,40.00,13,8,34,0.00
2012-11-28,50.0,43.7,40.0,12.0,3.6,-4.0,29,19,14,0.00,40.00,14,11,31,0.00
2012-11-29,54.0,44.9,41.0,21.0,17.9,12.0,41,34,23,0.00,40.00,12,7,27,0.00
2012-11-30,53.0,45.3,38.0,22.0,19.4,17.0,48,36,25,0.00,40.00,13,9,35,0.00
2012-12-1,53.0,45.8,43.0,25.0,21.1,14.0,47,37,28,0.00,40.00,17,8,49,0.00
2012-12-2,56.0,48.1,41.0,21.0,11.4,4.0,37,23,14,0.00,40.00,20,10,49,0.00
2012-12-3,46.0,39.0,23.0,28.0,6.1,-14.0,62,29,9,0.00,40.00,20,11,58,0.00
2012-12-4,47.0,39.0,32.0,17.0,6.8,1.0,37,26,15,0.00,40.00,17,10,37,0.00
2012-12-5,56.0,45.6,39.0,26.0,21.6,16.0,51,39,23,0.00,40.00,11,8,41,0.00
2012-12-6,46.0,37.5,31.0,28.0,19.2,-99.9,69,51,36,0.00,40.00,10,5,22,0.00
2012-12-7,39.0,33.2,24.0,23.0,17.1,13.0,70,52,39,0.00,40.00,12,6,28,0.00
2012-12-8,31.0,28.9,14.0,18.0,14.8,-2.0,63,55,48,0.00,40.00,12,7,24,0.00
2012-12-9,18.0,11.2,1.0,0.0,-8.3,-16.0,57,41,24,0.00,40.00,14,4,29,0.00
2012-12-10,25.0,18.7,10.0,9.0,2.6,-14.0,70,50,30,0.00,40.00,19,8,37,0.00
2012-12-11,25.0,18.5,8.0,9.0,5.4,1.0,78,57,37,0.00,40.00,17,9,36,0.00
2012-12-12,42.0,32.7,25.0,11.0,9.4,8.0,50,38,26,0.00,40.00,20,10,43,0.00
2012-12-13,44.0,35.3,23.0,8.0,5.8,3.0,45,29,19,0.00,40.00,13,7,29,0.00
2012-12-14,40.0,29.9,19.0,19.0,10.4,3.0,71,45,30,0.00,40.00,7,2,18,0.00
2012-12-15,35.0,31.8,27.0,18.0,14.1,8.0,56,48,41,0.00,40.00,10,7,26,0.00
2012-12-16,30.0,25.7,19.0,10.0,4.7,-3.0,53,40,29,0.00,40.00,16,9,36,0.00
2012-12-17,32.0,26.6,23.0,21.0,14.8,4.0,79,61,42,0.00,40.00,17,10,43,0.00
2012-12-18,29.0,23.9,19.0,22.0,19.2,16.0,92,82,62,0.00,40.00,7,2,14,0.03
2012-12-19,19.0,13.7,8.0,16.0,3.1,-14.0,87,65,32,0.00,40.00,14,5,30,0.03
2012-12-20,33.0,22.9,10.0,1.0,-6.0,-14.0,34,28,18,0.00,40.00,17,11,35,0.04
2012-12-21,46.0,35.5,24.0,0.0,-2.5,-5.0,35,20,14,0.00,40.00,12,8,31,0.01
2012-12-22,48.0,38.6,35.0,-4.0,-9.3,-14.0,17,13,9,0.00,40.00,14,9,32,0.01
2012-12-23,36.0,32.5,29.0,16.0,5.3,-14.0,44,33,11,0.00,40.00,14,10,33,0.00
2012-12-24,34.0,28.1,15.0,22.0,14.6,8.0,91,60,37,0.00,40.00,12,6,37,0.00
2012-12-25,25.0,10.4,-3.0,12.0,3.0,-8.0,86,73,45,0.00,40.00,7,2,20,0.14
2012-12-26,38.0,22.8,1.0,18.0,6.5,-4.0,81,51,29,0.00,40.00,13,6,27,0.01
2012-12-27,28.0,18.8,4.0,11.0,4.4,-2.0,89,56,31,0.00,40.00,10,5,21,0.01
2012-12-28,23.0,15.1,5.0,-1.0,-5.1,-9.0,76,40,32,0.00,40.00,13,9,28,0.00
2012-12-29,38.0,19.5,4.0,1.0,-7.6,-16.0,51,31,13,0.00,40.00,12,4,28,0.00
2012-12-30,38.0,27.0,13.0,4.0,-1.1,-9.0,67,31,19,0.00,40.00,13,8,30,0.00
2012-12-31,24.0,11.6,0.0,12.0,4.7,-5.0,83,74,58,0.00,40.00,5,1,11,0.00
2013-1-1,23.0,15.0,-1.0,1.0,-5.1,-7.0,78,41,29,0.00,40.00,13,8,28,0.00